Погода в Красном Партизане

Россия / Республика Калмыкия     46°05′47″N   42°41′55″E
темп.,
°C
ветер,
м/с
пор.,
м/с
влажн.,
%
обл.,
%
осадки,
мм/ч
давл.,
гПа
погр.,
м
14 апреля, ср
ср1400:00+10с3494100 0.0 101973
03:00+10в2367100 0.0 101722
06:00+8ю2262100 0.0 101713
09:00+12з337799 0.0 1017413
12:00+16з3358100 0.0 10161031
15:00+17зюз435559 0.0 10161460
18:00+13зюз587759 0.0 1016380
21:00+10зюз479112 0.0 1017139
15 апреля, чт
чт1500:00+8зюз489513 0.0 1017147
03:00+8з35953 0.0 101780
06:00+7з349577 0.0 101782
09:00+14зсз45695 0.0 1018495
12:00+18зсз45485 0.0 10171322
15:00+19сз44420 0.0 10161734
18:00+17сз22575 0.0 101627
21:00+13юз116616 0.0 101710
16 апреля, пт
пт1600:00+11з2375100 0.0 101720
03:00+10зсз2280100 0.0 101713
06:00+10з2283100 0.0 101816
09:00+15ссз1167100 0.1 1018347
12:00+19всв22533 0.0 10181126
15:00+19всв2451100 0.8 10171518
18:00+16всв4766100 0.0 1016177
21:00+10зсз61096100 6.1 1019381
17 апреля, сб
сб1700:00+10зсз2495100 6.4 1020269
03:00+10зсз4795100 7.2 1020465
06:00+9зсз61093100 0.3 1022613
09:00+11зсз456933 1.9 10221045
12:00+15зсз44525 0.0 10231643
15:00+16зсз3343100 0.0 10231962
18:00+14с1257100 0.0 102315
21:00+10в2263100 0.0 102318
18 апреля, вс
вс1800:00+9вюв336777 0.0 102322
03:00+8вюв3474100 0.0 102362
06:00+7вюв3577100 0.0 102397
09:00+13вюв5661100 0.0 1023593
12:00+16вюв5551100 0.0 10221386
15:00+16юв5451100 0.0 10211534
18:00+14всв4661100 0.0 1021137
21:00+13вюв3663100 0.0 1021147